BRX1247 EKCH-EKAH

Flight info

Callsign BRX1247
Flight time 0h 24m
Altitude 12000
Route GOLGA3A GOLGA T505 ASLID DCT
Aircraft AT76/M-SDFGIRY/S

Departure

Time 2026-05-05 13:25
Airport Copenhagen Kastrup Airport (EKCH)

Arrival

Time 2026-05-05 13:50
Airport Aarhus Airport (EKAH)
Time Latitude Longitude Altitude Speed Heading
2026-05-05 13:03 55.62834 12.63236 20 ft 0 kts
2026-05-05 13:14 55.62825 12.63235 20 ft 4 kts
2026-05-05 13:14 55.62799 12.63229 20 ft 2 kts
2026-05-05 13:15 55.62780 12.63222 22 ft 4 kts 49°
2026-05-05 13:15 55.62778 12.63194 23 ft 3 kts 123°
2026-05-05 13:15 55.62791 12.63158 21 ft 1 kts 123°
2026-05-05 13:15 55.62792 12.63157 21 ft 0 kts 123°
2026-05-05 13:17 55.62777 12.63198 23 ft 7 kts 122°
2026-05-05 13:18 55.62744 12.63288 19 ft 11 kts 124°
2026-05-05 13:18 55.62696 12.63419 21 ft 14 kts 121°
2026-05-05 13:18 55.62675 12.63592 23 ft 15 kts 94°
2026-05-05 13:18 55.62671 12.63780 20 ft 16 kts 97°
2026-05-05 13:19 55.62618 12.63953 20 ft 17 kts 122°
2026-05-05 13:19 55.62550 12.64138 20 ft 19 kts 122°
2026-05-05 13:19 55.62474 12.64333 20 ft 20 kts 128°
2026-05-05 13:19 55.62389 12.64536 21 ft 21 kts 121°
2026-05-05 13:20 55.62308 12.64753 22 ft 21 kts 122°
2026-05-05 13:20 55.62234 12.64977 22 ft 17 kts 125°
2026-05-05 13:20 55.62186 12.65087 20 ft 9 kts 139°
2026-05-05 13:20 55.62126 12.65084 23 ft 10 kts 217°
2026-05-05 13:21 55.62050 12.64996 21 ft 15 kts 213°
2026-05-05 13:21 55.61946 12.64881 20 ft 19 kts 212°
2026-05-05 13:21 55.61827 12.64738 20 ft 22 kts 212°
2026-05-05 13:21 55.61692 12.64585 22 ft 24 kts 210°
2026-05-05 13:22 55.61550 12.64419 23 ft 25 kts 213°
2026-05-05 13:22 55.61397 12.64246 20 ft 27 kts 211°
2026-05-05 13:22 55.61246 12.64068 22 ft 26 kts 210°
2026-05-05 13:22 55.61096 12.63899 20 ft 24 kts 212°
2026-05-05 13:23 55.60964 12.63748 20 ft 21 kts 213°
2026-05-05 13:23 55.60843 12.63605 22 ft 21 kts 213°
2026-05-05 13:23 55.60740 12.63693 20 ft 17 kts 131°
2026-05-05 13:23 55.60691 12.63856 22 ft 13 kts 84°
2026-05-05 13:24 55.60736 12.63959 22 ft 17 kts 41°
2026-05-05 13:24 55.60889 12.64196 21 ft 51 kts 42°
2026-05-05 13:24 55.61323 12.64864 22 ft 111 kts 40°
2026-05-05 13:24 55.61991 12.65883 214 ft 140 kts 40°
2026-05-05 13:25 55.62782 12.67122 489 ft 163 kts 38°
2026-05-05 13:25 55.63672 12.68434 969 ft 169 kts 38°
2026-05-05 13:25 55.64567 12.69818 1568 ft 170 kts 39°
2026-05-05 13:25 55.65453 12.71152 2220 ft 169 kts 30°
2026-05-05 13:26 55.66559 12.71396 2828 ft 164 kts 347°
2026-05-05 13:26 55.67677 12.70937 3325 ft 165 kts 348°
2026-05-05 13:26 55.68813 12.70548 3744 ft 167 kts 350°
2026-05-05 13:26 55.69957 12.70160 4144 ft 169 kts 340°
2026-05-05 13:27 55.70776 12.68715 4541 ft 171 kts 299°
2026-05-05 13:27 55.71314 12.66823 4907 ft 174 kts 301°
2026-05-05 13:27 55.71910 12.64961 5322 ft 174 kts 303°
2026-05-05 13:27 55.72585 12.63158 5737 ft 175 kts 306°
2026-05-05 13:28 55.73313 12.61422 6153 ft 175 kts 309°
2026-05-05 13:28 55.74097 12.59760 6582 ft 176 kts 311°
2026-05-05 13:28 55.74911 12.58124 6987 ft 177 kts 310°
2026-05-05 13:28 55.75725 12.56486 7383 ft 178 kts 309°
2026-05-05 13:29 55.76556 12.54837 7811 ft 179 kts 309°
2026-05-05 13:29 55.77385 12.53191 8218 ft 179 kts 308°
2026-05-05 13:29 55.78216 12.51537 8610 ft 180 kts 308°
2026-05-05 13:29 55.79055 12.49875 9016 ft 181 kts 307°
2026-05-05 13:30 55.79880 12.48220 9412 ft 181 kts 307°
2026-05-05 13:30 55.80723 12.46525 9821 ft 181 kts 306°
2026-05-05 13:30 55.81546 12.44858 10177 ft 182 kts 306°
2026-05-05 13:30 55.82393 12.43138 10525 ft 183 kts 306°
2026-05-05 13:31 55.83232 12.41432 10875 ft 184 kts 306°
2026-05-05 13:31 55.84065 12.39739 11211 ft 185 kts 305°
2026-05-05 13:31 55.84914 12.38011 11556 ft 185 kts 305°
2026-05-05 13:31 55.85772 12.36264 11807 ft 191 kts 305°
2026-05-05 13:32 55.86673 12.34422 11893 ft 204 kts 305°
2026-05-05 13:32 55.87639 12.32449 11926 ft 217 kts 306°
2026-05-05 13:32 55.88658 12.30362 11945 ft 229 kts 306°
2026-05-05 13:32 55.89720 12.28187 11953 ft 237 kts 306°
2026-05-05 13:33 55.90822 12.25930 11956 ft 244 kts 306°
2026-05-05 13:33 55.91951 12.23614 11960 ft 250 kts 306°
2026-05-05 13:33 55.93098 12.21258 11964 ft 254 kts 306°
2026-05-05 13:33 55.94265 12.18868 11961 ft 257 kts 306°
2026-05-05 13:34 55.95440 12.16452 11960 ft 259 kts 306°
2026-05-05 13:34 55.96624 12.14014 11962 ft 261 kts 306°
2026-05-05 13:34 55.97816 12.11559 11959 ft 262 kts 306°
2026-05-05 13:34 55.99014 12.09097 11972 ft 263 kts 306°
2026-05-05 13:35 56.00213 12.06624 11966 ft 264 kts 306°
2026-05-05 13:35 56.01411 12.04148 11963 ft 264 kts 306°
2026-05-05 13:35 56.02611 12.01666 11959 ft 264 kts 306°
2026-05-05 13:35 56.03812 11.99181 11971 ft 264 kts 306°
2026-05-05 13:36 56.04998 11.96722 11969 ft 264 kts 306°
2026-05-05 13:36 56.06199 11.94231 11964 ft 264 kts 306°
2026-05-05 13:36 56.07404 11.91731 11963 ft 264 kts 306°
2026-05-05 13:36 56.08606 11.89237 11972 ft 265 kts 306°
2026-05-05 13:37 56.09807 11.86738 11969 ft 265 kts 306°
2026-05-05 13:37 56.11007 11.84237 11967 ft 265 kts 306°
2026-05-05 13:37 56.12209 11.81732 11971 ft 265 kts 306°
2026-05-05 13:37 56.13410 11.79231 11965 ft 265 kts 306°
2026-05-05 13:38 56.14610 11.76722 11971 ft 265 kts 306°
2026-05-05 13:38 56.15405 11.75060 11971 ft 265 kts 306°
2026-05-05 13:38 56.16604 11.72554 11971 ft 265 kts 306°
2026-05-05 13:38 56.17805 11.70037 11971 ft 265 kts 306°
2026-05-05 13:39 56.19005 11.67525 11971 ft 265 kts 306°
2026-05-05 13:39 56.20200 11.65012 11967 ft 265 kts 306°
2026-05-05 13:39 56.21398 11.62495 11969 ft 265 kts 306°
2026-05-05 13:39 56.22599 11.59970 11971 ft 265 kts 306°
2026-05-05 13:40 56.23794 11.57452 11967 ft 265 kts 306°
2026-05-05 13:40 56.24995 11.54925 11968 ft 265 kts 306°
2026-05-05 13:40 56.26189 11.52401 11971 ft 265 kts 306°
2026-05-05 13:40 56.27384 11.49881 11968 ft 265 kts 306°
2026-05-05 13:41 56.28566 11.47381 11969 ft 265 kts 306°
2026-05-05 13:41 56.29759 11.44853 11967 ft 265 kts 306°
2026-05-05 13:41 56.30958 11.42316 11971 ft 265 kts 306°
2026-05-05 13:41 56.32158 11.39761 11796 ft 272 kts 306°
2026-05-05 13:42 56.33380 11.37113 11566 ft 272 kts 302°
2026-05-05 13:42 56.34001 11.34132 11317 ft 245 kts 274°
2026-05-05 13:42 56.34015 11.31106 10834 ft 239 kts 266°
2026-05-05 13:42 56.33764 11.28163 10339 ft 237 kts 258°
2026-05-05 13:43 56.33330 11.25308 9800 ft 236 kts 255°
2026-05-05 13:43 56.32861 11.22465 9119 ft 237 kts 255°
2026-05-05 13:43 56.32392 11.19610 8484 ft 238 kts 255°
2026-05-05 13:43 56.31907 11.16740 7858 ft 240 kts 255°
2026-05-05 13:44 56.31413 11.13850 7239 ft 242 kts 255°
2026-05-05 13:44 56.30920 11.10980 6650 ft 244 kts 255°
2026-05-05 13:44 56.30410 11.08063 6040 ft 245 kts 255°
2026-05-05 13:44 56.29893 11.05126 5403 ft 247 kts 254°
2026-05-05 13:45 56.29371 11.02171 4780 ft 248 kts 255°
2026-05-05 13:45 56.28846 10.99211 4138 ft 248 kts 254°
2026-05-05 13:45 56.28326 10.96262 3527 ft 248 kts 254°
2026-05-05 13:45 56.27806 10.93301 2901 ft 248 kts 254°
2026-05-05 13:46 56.27302 10.90344 2395 ft 244 kts 254°
2026-05-05 13:46 56.26880 10.87507 2153 ft 224 kts 265°
2026-05-05 13:46 56.27131 10.84892 2062 ft 204 kts 288°
2026-05-05 13:46 56.27548 10.82539 2001 ft 192 kts 290°
2026-05-05 13:47 56.27948 10.80349 1784 ft 174 kts 290°
2026-05-05 13:47 56.28326 10.78395 1553 ft 158 kts 290°
2026-05-05 13:47 56.28667 10.76564 1370 ft 151 kts 289°
2026-05-05 13:47 56.28976 10.74788 1192 ft 143 kts 288°
2026-05-05 13:48 56.29227 10.73115 1026 ft 135 kts 283°
2026-05-05 13:48 56.29400 10.71483 854 ft 135 kts 278°
2026-05-05 13:48 56.29533 10.69810 712 ft 134 kts 279°
2026-05-05 13:48 56.29697 10.68174 640 ft 133 kts 280°
2026-05-05 13:49 56.29859 10.66511 436 ft 136 kts 281°
2026-05-05 13:49 56.30035 10.64879 220 ft 131 kts 281°
2026-05-05 13:49 56.30193 10.63306 96 ft 123 kts 279°
2026-05-05 13:49 56.30335 10.61904 85 ft 108 kts 280°
2026-05-05 13:50 56.30445 10.60786 87 ft 47 kts 279°
2026-05-05 13:50 56.30532 10.60702 84 ft 16 kts 12°
2026-05-05 13:50 56.30639 10.60769 84 ft 7 kts 66°
2026-05-05 13:50 56.30627 10.60953 86 ft 28 kts 101°
2026-05-05 13:51 56.30579 10.61426 90 ft 48 kts 101°
2026-05-05 13:51 56.30522 10.61987 85 ft 42 kts 101°
2026-05-05 13:51 56.30561 10.62281 85 ft 19 kts 39°
2026-05-05 13:51 56.30650 10.62423 86 ft 15 kts 45°
2026-05-05 13:52 56.30675 10.62568 89 ft 5 kts 41°
2026-05-05 13:52 56.30713 10.62580 85 ft 6 kts
2026-05-05 13:52 56.30727 10.62585 85 ft 0 kts 11°